TimeCDT,TemperatureF,Dew PointF,Humidity,Sea Level PressureIn,VisibilityMPH,Wind Direction,Wind SpeedMPH,Gust SpeedMPH,PrecipitationIn,Events,Conditions,WindDirDegrees,DateUTC
12:15 AM,32.0,32.0,100,29.76,2.5,East,12.7,-,N/A,Snow,Light Snow,90,2014-03-11 05:15:00
12:35 AM,32.0,32.0,100,29.75,2.5,East,16.1,-,0.02,Snow,Light Snow,100,2014-03-11 05:35:00
12:55 AM,32.0,32.0,100,29.75,2.0,East,11.5,-,0.05,Snow,Light Snow,100,2014-03-11 05:55:00
1:15 AM,32.0,32.0,100,29.75,3.0,East,11.5,-,0.01,Snow,Light Snow,90,2014-03-11 06:15:00
1:35 AM,32.0,32.0,100,29.77,3.0,East,11.5,-,0.02,Snow,Light Snow,90,2014-03-11 06:35:00
1:55 AM,32.0,32.0,100,29.77,1.2,East,11.5,-,0.09,Snow,Light Snow,90,2014-03-11 06:55:00
2:15 AM,32.0,32.0,100,29.79,1.2,East,11.5,-,0.07,Snow,Light Snow,90,2014-03-11 07:15:00
2:35 AM,32.0,32.0,100,29.79,1.0,East,13.8,-,0.18,Snow,Light Snow,90,2014-03-11 07:35:00
2:55 AM,32.0,32.0,100,29.80,1.0,East,11.5,-,0.28,Snow,Light Snow,100,2014-03-11 07:55:00
3:15 AM,32.0,32.0,100,29.82,0.5,East,9.2,-,0.16,Snow,Snow,100,2014-03-11 08:15:00
3:35 AM,32.0,32.0,100,29.84,0.8,Calm,Calm,-,N/A,Snow,Light Snow,0,2014-03-11 08:35:00
3:55 AM,30.2,30.2,100,29.85,1.0,Calm,Calm,-,N/A,Snow,Light Snow,0,2014-03-11 08:55:00
4:15 AM,30.2,30.2,100,29.86,1.0,Calm,Calm,-,0.17,Snow,Light Snow,0,2014-03-11 09:15:00
4:35 AM,30.2,30.2,100,29.86,-9999.0,ENE,3.5,-,0.32,Snow,Heavy Snow,60,2014-03-11 09:35:00
4:55 AM,30.2,30.2,100,29.86,1.0,ENE,4.6,-,0.48,Snow,Light Snow,70,2014-03-11 09:55:00
5:15 AM,30.2,30.2,100,29.87,0.8,Calm,Calm,-,0.11,Snow,Light Snow,0,2014-03-11 10:15:00
5:35 AM,30.2,30.2,100,29.88,-9999.0,NE,3.5,-,0.38,Snow,Heavy Snow,40,2014-03-11 10:35:00
5:55 AM,30.2,30.2,100,29.91,-9999.0,Calm,Calm,-,N/A,Snow,Heavy Snow,0,2014-03-11 10:55:00
6:15 AM,30.2,30.2,100,29.93,1.0,North,4.6,-,N/A,Snow,Light Snow,10,2014-03-11 11:15:00
6:35 AM,30.2,30.2,100,29.94,1.2,North,4.6,-,N/A,Snow,Light Snow,10,2014-03-11 11:35:00
6:55 AM,30.2,30.2,100,29.95,1.2,NW,3.5,-,N/A,Snow,Light Snow,320,2014-03-11 11:55:00
7:15 AM,30.2,30.2,100,29.96,0.8,North,8.1,-,N/A,Snow,Light Snow,350,2014-03-11 12:15:00
7:35 AM,30.2,30.2,100,29.98,0.8,NNW,5.8,-,N/A,Snow,Light Snow,330,2014-03-11 12:35:00
7:55 AM,30.2,30.2,100,29.98,2.5,WNW,3.5,-,N/A,Snow,Light Snow,290,2014-03-11 12:55:00
8:15 AM,30.2,30.2,100,29.99,1.0,WNW,4.6,-,0.12,Snow,Light Snow,290,2014-03-11 13:15:00
8:35 AM,30.2,30.2,100,30.00,1.0,WNW,5.8,-,0.33,Snow,Light Snow,300,2014-03-11 13:35:00
8:55 AM,30.2,30.2,100,30.02,0.8,WNW,9.2,-,0.48,Snow,Light Snow,300,2014-03-11 13:55:00
9:15 AM,32.0,32.0,100,30.03,1.2,NW,17.3,25.3,0.03,,Mostly Cloudy,310,2014-03-11 14:15:00
9:35 AM,32.0,30.2,93,30.05,9.0,NW,15.0,-,0.04,Snow,Light Snow,310,2014-03-11 14:35:00
9:55 AM,30.2,30.2,100,30.06,10.0,WNW,15.0,21.9,0.04,,Mostly Cloudy,300,2014-03-11 14:55:00
10:15 AM,30.2,28.4,93,30.08,10.0,NW,10.4,-,N/A,,Partly Cloudy,310,2014-03-11 15:15:00
10:35 AM,30.2,28.4,93,30.09,10.0,WNW,13.8,17.3,N/A,,Partly Cloudy,290,2014-03-11 15:35:00
10:55 AM,30.2,28.4,93,30.11,10.0,NW,11.5,18.4,N/A,,Mostly Cloudy,310,2014-03-11 15:55:00
11:15 AM,30.2,28.4,93,30.13,10.0,NW,12.7,19.6,N/A,,Overcast,310,2014-03-11 16:15:00
11:35 AM,30.2,28.4,93,30.14,10.0,WNW,15.0,-,N/A,,Overcast,290,2014-03-11 16:35:00
12:15 PM,30.2,26.6,86,30.16,10.0,WNW,13.8,-,N/A,,Overcast,300,2014-03-11 17:15:00
12:35 PM,30.2,26.6,86,30.17,10.0,WNW,13.8,20.7,N/A,,Overcast,300,2014-03-11 17:35:00
12:55 PM,32.0,26.6,80,30.18,10.0,WNW,15.0,19.6,N/A,,Overcast,290,2014-03-11 17:55:00
1:15 PM,32.0,26.6,80,30.18,10.0,WNW,17.3,23.0,N/A,,Mostly Cloudy,300,2014-03-11 18:15:00
1:35 PM,32.0,26.6,80,30.19,10.0,NW,16.1,-,N/A,,Mostly Cloudy,310,2014-03-11 18:35:00
1:55 PM,32.0,26.6,80,30.20,10.0,WNW,17.3,23.0,N/A,,Mostly Cloudy,290,2014-03-11 18:55:00
2:15 PM,32.0,26.6,80,30.20,10.0,WNW,17.3,24.2,N/A,,Mostly Cloudy,300,2014-03-11 19:15:00
2:35 PM,32.0,26.6,80,30.20,10.0,WNW,15.0,20.7,N/A,,Scattered Clouds,300,2014-03-11 19:35:00
2:55 PM,32.0,24.8,75,30.21,10.0,WNW,17.3,-,N/A,,Mostly Cloudy,300,2014-03-11 19:55:00
3:15 PM,32.0,26.6,80,30.21,10.0,WNW,16.1,-,N/A,,Overcast,300,2014-03-11 20:15:00
3:35 PM,32.0,24.8,75,30.21,10.0,WNW,15.0,-,N/A,,Mostly Cloudy,290,2014-03-11 20:35:00
3:55 PM,32.0,24.8,75,30.21,10.0,NW,15.0,21.9,N/A,,Scattered Clouds,310,2014-03-11 20:55:00
4:15 PM,32.0,24.8,75,30.22,10.0,WNW,16.1,20.7,N/A,,Partly Cloudy,300,2014-03-11 21:15:00
4:35 PM,32.0,24.8,75,30.22,10.0,WNW,17.3,-,N/A,,Partly Cloudy,300,2014-03-11 21:35:00
4:55 PM,32.0,24.8,75,30.22,10.0,WNW,13.8,-,N/A,,Clear,300,2014-03-11 21:55:00
5:15 PM,32.0,24.8,75,30.23,10.0,WNW,15.0,-,N/A,,Clear,300,2014-03-11 22:15:00
5:35 PM,32.0,24.8,75,30.23,10.0,WNW,17.3,23.0,N/A,,Clear,300,2014-03-11 22:35:00
5:55 PM,32.0,24.8,75,30.23,10.0,WNW,15.0,19.6,N/A,,Partly Cloudy,300,2014-03-11 22:55:00
6:15 PM,32.0,24.8,75,30.23,10.0,WNW,16.1,23.0,N/A,,Scattered Clouds,300,2014-03-11 23:15:00
6:35 PM,32.0,24.8,75,30.24,10.0,WNW,12.7,-,N/A,,Overcast,290,2014-03-11 23:35:00
6:55 PM,32.0,24.8,75,30.24,10.0,WNW,12.7,21.9,N/A,,Mostly Cloudy,290,2014-03-11 23:55:00
7:15 PM,32.0,26.6,80,30.24,10.0,West,9.2,-,N/A,,Mostly Cloudy,270,2014-03-12 00:15:00
7:35 PM,32.0,26.6,80,30.24,10.0,West,8.1,-,N/A,,Overcast,270,2014-03-12 00:35:00
7:55 PM,32.0,24.8,75,30.24,10.0,West,10.4,-,N/A,,Overcast,270,2014-03-12 00:55:00
8:15 PM,32.0,26.6,80,30.24,10.0,West,13.8,-,N/A,,Overcast,280,2014-03-12 01:15:00
8:35 PM,32.0,26.6,80,30.25,10.0,West,13.8,-,N/A,,Overcast,280,2014-03-12 01:35:00
8:55 PM,32.0,24.8,75,30.25,10.0,West,10.4,17.3,N/A,,Mostly Cloudy,270,2014-03-12 01:55:00
9:15 PM,32.0,24.8,75,30.24,10.0,West,12.7,-,N/A,,Mostly Cloudy,260,2014-03-12 02:15:00
9:35 PM,32.0,24.8,75,30.24,10.0,West,11.5,-,N/A,,Scattered Clouds,270,2014-03-12 02:35:00
9:55 PM,32.0,24.8,75,30.25,10.0,West,16.1,-,N/A,,Mostly Cloudy,280,2014-03-12 02:55:00
10:15 PM,32.0,26.6,80,30.25,10.0,West,15.0,23.0,N/A,,Overcast,280,2014-03-12 03:15:00
10:35 PM,32.0,26.6,80,30.25,10.0,West,15.0,-,N/A,,Overcast,280,2014-03-12 03:35:00
10:55 PM,32.0,24.8,75,30.24,10.0,West,12.7,20.7,N/A,,Mostly Cloudy,270,2014-03-12 03:55:00
11:15 PM,32.0,24.8,75,30.24,10.0,West,13.8,-,N/A,,Mostly Cloudy,270,2014-03-12 04:15:00
11:35 PM,33.8,24.8,70,30.24,10.0,West,13.8,21.9,N/A,,Overcast,270,2014-03-12 04:35:00
11:55 PM,33.8,23.0,65,30.24,10.0,West,16.1,24.2,N/A,,Mostly Cloudy,280,2014-03-12 04:55:00